Preview of NWS' New Version of Forecast
This preview is not operational and should not be used for support decisions.

Regional Weather Roundup (RWR)

Issued by National Weather Service (NWS)

                            
000
ASUS44 KMEG 190200
RWRTN 
TENNESSEE HOURLY STATE WEATHER ROUNDUP
NATIONAL WEATHER SERVICE MEMPHIS TN
900 PM CDT MON MAR 18 2019

TNZ002-004-019-021-049-052-054-088>092-190300-
WEST TENNESSEE
  
CITY           SKY/WX    TMP DP  RH WIND       PRES   REMARKS
MEMPHIS INTL   FAIR      50  28  42 NE7       30.36S                  
NWS MEMPHIS      N/A     46 N/A N/A MISG        N/A                   
JACKSON        FAIR      41  26  55 CALM      30.38R                  
DYERSBURG      FAIR      47  24  40 CALM      30.39S                  
$$

TNZ008-025-027-028-033-062-065-066-190300-
NORTH MIDDLE TENNESSEE
  
CITY           SKY/WX    TMP DP  RH WIND       PRES   REMARKS
NASHVILLE      FAIR      45  19  35 N5        30.40R                  
CLARKSVILLE    FAIR      41  20  43 NE3       30.40R                  
SMYRNA         FAIR      37  25  61 N3        30.40R                  
CROSSVILLE     FAIR      38  15  39 NE3       30.35R                  
$$

TNZ061-075-076-078-094-096-097-190300-
SOUTH MIDDLE TENNESSEE
  
CITY           SKY/WX    TMP DP  RH WIND       PRES   REMARKS
FAYETTEVILLE   CLEAR     43  19  39 NE6       30.35R                  
$$

TNZ017-018-042-046-047-190300-
NORTHEAST TENNESSEE
  
CITY           SKY/WX    TMP DP  RH WIND       PRES   REMARKS
TRI CITIES     FAIR      35  16  45 N3        30.34S                  
$$

TNZ012-013-036-069-073-074-190300-
CENTRAL EAST TENNESSEE
  
CITY           SKY/WX    TMP DP  RH WIND       PRES   REMARKS
KNOXVILLE      MOCLDY    44  16  32 N6        30.34R                  
OAK RIDGE      FAIR      44  16  32 CALM      30.37R                  
$$

TNZ083-085-099-190300-
SOUTHEAST TENNESSEE
  
CITY           SKY/WX    TMP DP  RH WIND       PRES   REMARKS
CHATTANOOGA    MOCLDY    47  17  30 N8        30.35R                  
$$

SKY/WX REPORTED AS FAIR MEANS FEW OR NO CLOUDS BELOW
12 THOUSAND FEET.